This is the latest recevied weather packets stored in our database for station/object 9M4RBN-3. If no packets are shown the sender has not sent any weather packets the latest 10 day(s).
| Time | Temp. | Humidity | Pressure | Rain* | Wind** | Luminosity | Snow |
|---|---|---|---|---|---|---|---|
| 1778161906 | 26.67° C | 43% | 1014.5 hPa | - | - | - | - |
| 1778161006 | 26.67° C | 44% | 1014.2 hPa | - | - | - | - |
| 1778160106 | 26.67° C | 43% | 1013.9 hPa | - | - | - | - |
| 1778159206 | 26.67° C | 43% | 1013.7 hPa | - | - | - | - |
| 1778158306 | 26.67° C | 43% | 1013.3 hPa | - | - | - | - |
| 1778157406 | 27.22° C | 43% | 1013.1 hPa | - | - | - | - |
| 1778156506 | 27.22° C | 43% | 1012.7 hPa | - | - | - | - |
| 1778155606 | 27.22° C | 44% | 1012.5 hPa | - | - | - | - |
| 1778154706 | 27.22° C | 44% | 1012.4 hPa | - | - | - | - |
| 1778153806 | 27.22° C | 44% | 1012.2 hPa | - | - | - | - |
| 1778152906 | 27.22° C | 44% | 1012.1 hPa | - | - | - | - |
| 1778152005 | 27.22° C | 45% | 1011.9 hPa | - | - | - | - |
| 1778151105 | 27.22° C | 46% | 1011.8 hPa | - | - | - | - |
| 1778150205 | 27.22° C | 47% | 1011.4 hPa | - | - | - | - |
| 1778149305 | 26.67° C | 49% | 1011.4 hPa | - | - | - | - |
| 1778148405 | 26.67° C | 53% | 1011.5 hPa | - | - | - | - |
| 1778147505 | 26.11° C | 53% | 1011.1 hPa | - | - | - | - |
| 1778146605 | 25.56° C | 38% | 1010.9 hPa | - | - | - | - |
| 1778145705 | 26.67° C | 40% | 1011.1 hPa | - | - | - | - |
| 1778144805 | 26.67° C | 49% | 1010.9 hPa | - | - | - | - |
| 1778143905 | 26.67° C | 67% | 1010.9 hPa | - | - | - | - |
| 1778143005 | 25.56° C | 40% | 1011.3 hPa | - | - | - | - |
| 1778142105 | 26.67° C | 38% | 1011.2 hPa | - | - | - | - |
| 1778141205 | 27.22° C | 45% | 1011.7 hPa | - | - | - | - |
| 1778140305 | 27.22° C | 47% | 1012 hPa | - | - | - | - |
* Rain since midnight (hover to see other rain measurements)
** Current wind speed in m/s (hover to see current wind gust speed)